Location: Malvern Link
(52.1333°N, 2.3000°W)
Time: 03:02:59
(UTC+00:00)

Meteor 1-24 Rocket - Pass Details

Date: 18 September 2020
Orbit: 790 x 927 km, 81.2° (Epoch: 22 October)

Event Time Altitude Azimuth Distance (km) Brightness Sun altitude
Rises 20:46:58 0° 346° (NNW) 3,340 7.6 -22.5°
Reaches altitude 10° 20:49:20 10° 346° (NNW) 2,419 6.7 -22.8°
Maximum altitude 20:54:49 85° 260° (W) 847 3.6 -23.5°
Enters shadow 20:56:35 46° 175° (S) 1,124 4.0 -23.7°
